| time (UTC) | temp F | wind direction | speed MPH | gust MPH | rain 1hr in | rain 24hr in | rain mn in | humidity % | barometer mb |
| 20260904215031 | 58 | 0 | 1.0 | 5.0 | 0.00 | 0.02 | 0.02 | 100 | 1019.9 |
| 20260904214558 | 58 | 149 | 1.0 | 5.0 | 0.00 | 0.02 | 0.02 | 100 | 1019.9 |
| 20260904214031 | 58 | 242 | 0.0 | 4.0 | 0.00 | 0.02 | 0.02 | 100 | 1019.7 |
| 20260904213535 | 58 | 261 | 1.0 | 4.0 | 0.00 | 0.02 | 0.02 | 100 | 1019.7 |
| 20260904213049 | 58 | 236 | 1.0 | 5.0 | 0.00 | 0.02 | 0.02 | 100 | 1019.7 |
| 20260904212531 | 58 | 245 | 1.0 | 6.0 | 0.00 | 0.02 | 0.02 | 100 | 1019.6 |
| 20260904212032 | 58 | 0 | 2.0 | 6.0 | 0.00 | 0.02 | 0.02 | 100 | 1019.6 |
| 20260904211544 | 58 | 242 | 1.0 | 5.0 | 0.00 | 0.02 | 0.02 | 100 | 1019.7 |
| 20260904211031 | 59 | 0 | 1.0 | 4.0 | 0.00 | 0.02 | 0.02 | 100 | 1019.6 |
| 20260904210531 | 59 | 253 | 1.0 | 4.0 | 0.00 | 0.02 | 0.02 | 100 | 1019.6 |
| 20260904210054 | 59 | 231 | 0.0 | 5.0 | 0.00 | 0.02 | 0.02 | 100 | 1019.6 |
| 20260904205536 | 59 | 271 | 1.0 | 9.0 | 0.00 | 0.02 | 0.02 | 100 | 1019.5 |
| 20260904205032 | 59 | 234 | 2.0 | 9.0 | 0.00 | 0.02 | 0.02 | 100 | 1019.6 |
| 20260904204550 | 59 | 256 | 2.0 | 7.0 | 0.00 | 0.02 | 0.02 | 100 | 1019.6 |
| 20260904204033 | 59 | 228 | 1.0 | 7.0 | 0.00 | 0.02 | 0.02 | 100 | 1019.5 |
| 20260904203532 | 60 | 265 | 2.0 | 6.0 | 0.00 | 0.02 | 0.02 | 100 | 1019.6 |
| 20260904203057 | 60 | 233 | 1.0 | 4.0 | 0.00 | 0.02 | 0.02 | 100 | 1019.5 |
| 20260904202535 | 60 | 0 | 1.0 | 7.0 | 0.00 | 0.02 | 0.02 | 100 | 1019.6 |
| 20260904202031 | 60 | 257 | 1.0 | 7.0 | 0.00 | 0.02 | 0.02 | 100 | 1019.6 |
| 20260904201544 | 60 | 257 | 1.0 | 7.0 | 0.00 | 0.02 | 0.02 | 100 | 1019.6 |
| 20260904201034 | 60 | 198 | 1.0 | 6.0 | 0.00 | 0.02 | 0.02 | 100 | 1019.4 |
| 20260904200535 | 60 | 252 | 1.0 | 6.0 | 0.00 | 0.02 | 0.02 | 100 | 1019.3 |
| 20260904200058 | 60 | 261 | 2.0 | 7.0 | 0.00 | 0.02 | 0.02 | 100 | 1019.3 |
| 20260904195535 | 61 | 262 | 2.0 | 7.0 | 0.00 | 0.02 | 0.02 | 100 | 1019.2 |
| 20260904195031 | 61 | 235 | 2.0 | 6.0 | 0.00 | 0.02 | 0.02 | 100 | 1019.1 |
| 20260904194551 | 61 | 220 | 1.0 | 6.0 | 0.00 | 0.02 | 0.02 | 100 | 1019.1 |
| 20260904194035 | 61 | 246 | 1.0 | 6.0 | 0.00 | 0.02 | 0.02 | 100 | 1018.9 |
| 20260904193536 | 61 | 287 | 3.0 | 7.0 | 0.00 | 0.02 | 0.02 | 100 | 1018.7 |
| 20260904193047 | 61 | 265 | 2.0 | 11.0 | 0.00 | 0.02 | 0.02 | 100 | 1018.8 |
| 20260904192531 | 62 | 315 | 3.0 | 11.0 | 0.00 | 0.02 | 0.02 | 100 | 1018.6 |
| 20260904192035 | 62 | 250 | 2.0 | 10.0 | 0.00 | 0.02 | 0.02 | 100 | 1018.5 |
| 20260904191544 | 62 | 186 | 1.0 | 6.0 | 0.00 | 0.02 | 0.02 | 100 | 1018.4 |
| 20260904191033 | 62 | 214 | 2.0 | 8.0 | 0.00 | 0.02 | 0.02 | 100 | 1018.2 |
| 20260904190537 | 62 | 234 | 2.0 | 8.0 | 0.00 | 0.02 | 0.02 | 100 | 1018.3 |
| 20260904190054 | 62 | 224 | 2.0 | 9.0 | 0.00 | 0.02 | 0.02 | 100 | 1018.3 |
| 20260904185539 | 62 | 352 | 3.0 | 9.0 | 0.00 | 0.02 | 0.02 | 100 | 1018.1 |
| 20260904185035 | 62 | 269 | 2.0 | 10.0 | 0.00 | 0.02 | 0.02 | 100 | 1017.9 |
| 20260904184549 | 63 | 0 | 3.0 | 10.0 | 0.00 | 0.02 | 0.02 | 100 | 1017.9 |
| 20260904184035 | 62 | 177 | 3.0 | 10.0 | 0.00 | 0.02 | 0.02 | 100 | 1017.9 |
| 20260904183535 | 63 | 252 | 3.0 | 9.0 | 0.00 | 0.02 | 0.02 | 100 | 1017.7 |
| 20260904183105 | 63 | 250 | 2.0 | 7.0 | 0.00 | 0.02 | 0.02 | 100 | 1017.7 |
| 20260904182532 | 63 | 0 | 2.0 | 7.0 | 0.00 | 0.02 | 0.02 | 100 | 1017.6 |
| 20260904182034 | 63 | 214 | 1.0 | 7.0 | 0.00 | 0.02 | 0.02 | 100 | 1017.6 |
| 20260904181553 | 63 | 263 | 1.0 | 6.0 | 0.00 | 0.02 | 0.02 | 100 | 1017.5 |
| 20260904181032 | 63 | 0 | 1.0 | 6.0 | 0.00 | 0.02 | 0.02 | 100 | 1017.5 |
| 20260904180532 | 63 | 250 | 2.0 | 7.0 | 0.00 | 0.02 | 0.02 | 100 | 1017.5 |
| 20260904180052 | 63 | 238 | 2.0 | 7.0 | 0.00 | 0.02 | 0.02 | 100 | 1017.4 |
| 20260904175533 | 63 | 0 | 1.0 | 8.0 | 0.00 | 0.02 | 0.02 | 100 | 1017.4 |
| 20260904175035 | 63 | 304 | 3.0 | 10.0 | 0.00 | 0.02 | 0.02 | 100 | 1017.4 |
| 20260904174550 | 63 | 274 | 3.0 | 11.0 | 0.00 | 0.02 | 0.02 | 100 | 1017.3 |
| 20260904174032 | 63 | 265 | 3.0 | 11.0 | 0.00 | 0.02 | 0.02 | 100 | 1017.4 |
| 20260904173533 | 63 | 239 | 2.0 | 6.0 | 0.00 | 0.02 | 0.02 | 100 | 1017.3 |
| 20260904173052 | 63 | 221 | 0.0 | 6.0 | 0.00 | 0.02 | 0.02 | 100 | 1017.4 |
| 20260904172535 | 63 | 239 | 2.0 | 6.0 | 0.00 | 0.02 | 0.02 | 100 | 1017.4 |
| 20260904172033 | 64 | 291 | 1.0 | 6.0 | 0.00 | 0.02 | 0.02 | 100 | 1017.3 |
| 20260904171604 | 64 | 178 | 1.0 | 9.0 | 0.00 | 0.02 | 0.02 | 100 | 1017.3 |
| 20260904171035 | 64 | 0 | 3.0 | 9.0 | 0.00 | 0.02 | 0.02 | 100 | 1017.3 |
| 20260904170532 | 64 | 242 | 3.0 | 9.0 | 0.00 | 0.02 | 0.02 | 100 | 1017.3 |
| 20260904170051 | 64 | 217 | 3.0 | 9.0 | 0.00 | 0.02 | 0.02 | 100 | 1017.1 |
| 20260904165535 | 64 | 247 | 3.0 | 10.0 | 0.00 | 0.02 | 0.02 | 100 | 1017.3 |
| 20260904165034 | 64 | 248 | 3.0 | 10.0 | 0.00 | 0.02 | 0.02 | 100 | 1017.3 |
| 20260904164559 | 64 | 232 | 2.0 | 10.0 | 0.00 | 0.02 | 0.02 | 100 | 1017.0 |
| 20260904164035 | 64 | 217 | 4.0 | 11.0 | 0.00 | 0.02 | 0.02 | 100 | 1017.1 |
| 20260904163533 | 64 | 248 | 3.0 | 11.0 | 0.00 | 0.02 | 0.02 | 100 | 1017.2 |
| 20260904163057 | 65 | 229 | 4.0 | 11.0 | 0.00 | 0.02 | 0.02 | 100 | 1016.6 |
| 20260904162532 | 65 | 169 | 4.0 | 11.0 | 0.00 | 0.02 | 0.02 | 100 | 1016.6 |
| 20260904162033 | 65 | 250 | 3.0 | 12.0 | 0.00 | 0.02 | 0.02 | 100 | 1016.5 |
| 20260904161553 | 65 | 156 | 4.0 | 13.0 | 0.00 | 0.02 | 0.02 | 100 | 1016.5 |
| 20260904161033 | 65 | 179 | 4.0 | 13.0 | 0.00 | 0.02 | 0.02 | 100 | 1016.5 |
| 20260904160534 | 65 | 247 | 3.0 | 11.0 | 0.00 | 0.02 | 0.02 | 100 | 1016.3 |
| 20260904160052 | 65 | 221 | 4.0 | 12.0 | 0.00 | 0.02 | 0.02 | 100 | 1016.4 |
| 20260904155534 | 66 | 277 | 4.0 | 12.0 | 0.00 | 0.02 | 0.02 | 100 | 1016.3 |
| 20260904155033 | 66 | 260 | 5.0 | 11.0 | 0.00 | 0.02 | 0.02 | 100 | 1016.5 |
| 20260904154550 | 66 | 234 | 5.0 | 14.0 | 0.00 | 0.02 | 0.02 | 100 | 1016.2 |
| 20260904154035 | 66 | 332 | 5.0 | 15.0 | 0.00 | 0.02 | 0.02 | 100 | 1016.3 |
| 20260904153535 | 66 | 252 | 4.0 | 15.0 | 0.00 | 0.02 | 0.02 | 100 | 1016.4 |
| 20260904153108 | 66 | 212 | 5.0 | 15.0 | 0.00 | 0.02 | 0.02 | 100 | 1016.5 |
| 20260904152534 | 66 | 263 | 6.0 | 15.0 | 0.00 | 0.02 | 0.02 | 100 | 1016.5 |
| 20260904152034 | 66 | 184 | 3.0 | 10.0 | 0.00 | 0.02 | 0.02 | 100 | 1016.3 |
| 20260904151553 | 67 | 225 | 4.0 | 10.0 | 0.00 | 0.02 | 0.02 | 100 | 1016.1 |
| 20260904151031 | 67 | 169 | 3.0 | 12.0 | 0.00 | 0.02 | 0.02 | 100 | 1016.2 |
| 20260904150534 | 67 | 209 | 4.0 | 12.0 | 0.00 | 0.02 | 0.02 | 100 | 1016.3 |
| 20260904150051 | 67 | 260 | 5.0 | 12.0 | 0.00 | 0.02 | 0.02 | 100 | 1016.1 |
| 20260904145533 | 67 | 128 | 3.0 | 10.0 | 0.00 | 0.02 | 0.02 | 100 | 1015.8 |
| 20260904145036 | 67 | 218 | 4.0 | 10.0 | 0.00 | 0.02 | 0.02 | 100 | 1015.5 |
| 20260904144559 | 67 | 238 | 1.0 | 7.0 | 0.00 | 0.02 | 0.02 | 100 | 1015.8 |
| 20260904144031 | 67 | 217 | 1.0 | 8.0 | 0.00 | 0.02 | 0.02 | 100 | 1015.7 |
| 20260904143532 | 67 | 199 | 2.0 | 11.0 | 0.00 | 0.02 | 0.02 | 100 | 1015.9 |
| 20260904143053 | 68 | 273 | 3.0 | 11.0 | 0.00 | 0.02 | 0.02 | 100 | 1015.7 |
| 20260904142534 | 68 | 248 | 3.0 | 14.0 | 0.00 | 0.02 | 0.02 | 100 | 1015.8 |
| 20260904142035 | 68 | 300 | 2.0 | 14.0 | 0.00 | 0.02 | 0.02 | 100 | 1015.7 |
| 20260904141550 | 68 | 242 | 4.0 | 14.0 | 0.00 | 0.02 | 0.02 | 100 | 1015.6 |
| 20260904141034 | 68 | 273 | 3.0 | 11.0 | 0.00 | 0.02 | 0.02 | 100 | 1015.6 |
| 20260904140534 | 68 | 197 | 3.0 | 12.0 | 0.00 | 0.02 | 0.02 | 100 | 1015.7 |
| 20260904140045 | 68 | 189 | 5.0 | 13.0 | 0.00 | 0.02 | 0.02 | 100 | 1015.7 |
| 20260904135532 | 68 | 223 | 5.0 | 13.0 | 0.00 | 0.02 | 0.02 | 100 | 1015.7 |
| 20260904135032 | 69 | 250 | 5.0 | 12.0 | 0.00 | 0.02 | 0.02 | 100 | 1015.6 |
| 20260904134547 | 69 | 267 | 4.0 | 11.0 | 0.00 | 0.02 | 0.02 | 100 | 1015.5 |
| 20260904134031 | 69 | 239 | 4.0 | 11.0 | 0.00 | 0.02 | 0.02 | 100 | 1015.3 |
| 20260904133532 | 69 | 165 | 3.0 | 14.0 | 0.00 | 0.02 | 0.02 | 100 | 1015.4 |
| 20260904133048 | 68 | 352 | 4.0 | 14.0 | 0.00 | 0.02 | 0.02 | 100 | 1015.5 |
| 20260904132534 | 68 | 238 | 5.0 | 14.0 | 0.00 | 0.02 | 0.02 | 100 | 1015.5 |
| 20260904132033 | 69 | 183 | 4.0 | 14.0 | 0.00 | 0.02 | 0.02 | 100 | 1015.7 |
| 20260904131600 | 68 | 288 | 5.0 | 14.0 | 0.00 | 0.02 | 0.02 | 100 | 1015.5 |
| 20260904131031 | 69 | 226 | 5.0 | 14.0 | 0.00 | 0.02 | 0.02 | 100 | 1015.6 |
| 20260904130534 | 69 | 302 | 3.0 | 13.0 | 0.00 | 0.02 | 0.02 | 100 | 1015.4 |
| 20260904130048 | 69 | 253 | 4.0 | 12.0 | 0.00 | 0.02 | 0.02 | 100 | 1015.3 |
| 20260904125531 | 69 | 257 | 4.0 | 12.0 | 0.00 | 0.02 | 0.02 | 100 | 1015.2 |
| 20260904125034 | 69 | 250 | 3.0 | 16.0 | 0.00 | 0.02 | 0.02 | 100 | 1014.9 |
| 20260904124553 | 69 | 209 | 5.0 | 16.0 | 0.00 | 0.02 | 0.02 | 100 | 1015.1 |
| 20260904124032 | 69 | 263 | 5.0 | 13.0 | 0.00 | 0.02 | 0.02 | 100 | 1015.1 |
| 20260904123532 | 70 | 21 | 4.0 | 12.0 | 0.00 | 0.01 | 0.01 | 100 | 1015.1 |
| 20260904123053 | 70 | 306 | 2.0 | 13.0 | 0.00 | 0.01 | 0.01 | 100 | 1014.9 |
| 20260904122534 | 70 | 242 | 5.0 | 14.0 | 0.00 | 0.01 | 0.01 | 100 | 1014.7 |
| 20260904122033 | 70 | 286 | 5.0 | 19.0 | 0.00 | 0.01 | 0.01 | 100 | 1014.7 |
| 20260904121550 | 70 | 231 | 7.0 | 19.0 | 0.00 | 0.01 | 0.01 | 100 | 1014.7 |
| 20260904121032 | 70 | 303 | 7.0 | 18.0 | 0.00 | 0.01 | 0.01 | 100 | 1014.7 |
| 20260904120531 | 70 | 174 | 6.0 | 14.0 | 0.00 | 0.01 | 0.01 | 100 | 1014.7 |
| 20260904120045 | 70 | 232 | 5.0 | 14.0 | 0.00 | 0.01 | 0.01 | 100 | 1014.5 |
| 20260904115534 | 69 | 174 | 4.0 | 16.0 | 0.00 | 0.01 | 0.01 | 100 | 1014.3 |
| 20260904115038 | 69 | 236 | 5.0 | 16.0 | 0.00 | 0.01 | 0.01 | 100 | 1014.3 |
| 20260904114603 | 69 | 257 | 4.0 | 14.0 | 0.00 | 0.01 | 0.01 | 100 | 1014.3 |
| 20260904114032 | 68 | 173 | 5.0 | 14.0 | 0.00 | 0.01 | 0.01 | 100 | 1014.3 |
| 20260904113537 | 68 | 217 | 6.0 | 18.0 | 0.00 | 0.01 | 0.01 | 100 | 1014.3 |
| 20260904113056 | 68 | 229 | 5.0 | 18.0 | 0.00 | 0.01 | 0.01 | 100 | 1014.3 |
| 20260904112534 | 69 | 231 | 7.0 | 18.0 | 0.00 | 0.01 | 0.01 | 100 | 1014.2 |
| 20260904112034 | 68 | 339 | 4.0 | 14.0 | 0.00 | 0.01 | 0.01 | 100 | 1014.1 |
| 20260904111551 | 68 | 242 | 4.0 | 14.0 | 0.00 | 0.01 | 0.01 | 100 | 1014.2 |
| 20260904111035 | 68 | 232 | 4.0 | 12.0 | 0.00 | 0.01 | 0.01 | 100 | 1014.3 |
| 20260904110531 | 68 | 299 | 4.0 | 12.0 | 0.00 | 0.01 | 0.01 | 100 | 1014.2 |
| 20260904110046 | 67 | 210 | 4.0 | 11.0 | 0.00 | 0.01 | 0.01 | 100 | 1014.3 |
| 20260904105534 | 67 | 234 | 3.0 | 14.0 | 0.00 | 0.01 | 0.01 | 100 | 1014.0 |
| 20260904105034 | 67 | 178 | 4.0 | 14.0 | 0.00 | 0.01 | 0.01 | 100 | 1014.3 |
| 20260904104557 | 67 | 144 | 3.0 | 11.0 | 0.00 | 0.01 | 0.01 | 100 | 1014.2 |
| 20260904104034 | 67 | 210 | 4.0 | 11.0 | 0.00 | 0.01 | 0.01 | 100 | 1014.1 |
| 20260904103534 | 67 | 211 | 3.0 | 17.0 | 0.00 | 0.01 | 0.01 | 100 | 1014.1 |
| 20260904103056 | 67 | 69 | 4.0 | 17.0 | 0.00 | 0.01 | 0.01 | 100 | 1013.9 |
| 20260904102532 | 67 | 236 | 4.0 | 10.0 | 0.00 | 0.01 | 0.01 | 100 | 1013.9 |
| 20260904102032 | 66 | 213 | 4.0 | 10.0 | 0.00 | 0.01 | 0.01 | 100 | 1013.7 |
| 20260904101551 | 67 | 302 | 3.0 | 12.0 | 0.00 | 0.01 | 0.01 | 100 | 1013.8 |
| 20260904101035 | 66 | 227 | 3.0 | 12.0 | 0.00 | 0.01 | 0.01 | 100 | 1013.8 |
| 20260904100535 | 67 | 219 | 3.0 | 10.0 | 0.00 | 0.01 | 0.01 | 100 | 1013.6 |
| 20260904100042 | 67 | 178 | 3.0 | 8.0 | 0.00 | 0.01 | 0.01 | 100 | 1013.6 |
| 20260904095535 | 66 | 246 | 2.0 | 10.0 | 0.00 | 0.01 | 0.01 | 100 | 1013.5 |
| 20260904095034 | 66 | 276 | 3.0 | 11.0 | 0.00 | 0.01 | 0.01 | 100 | 1013.5 |
| 20260904094604 | 66 | 236 | 2.0 | 11.0 | 0.00 | 0.01 | 0.01 | 100 | 1013.6 |
| 20260904094034 | 66 | 300 | 4.0 | 12.0 | 0.00 | 0.01 | 0.01 | 100 | 1013.6 |
| 20260904093536 | 65 | 0 | 2.0 | 12.0 | 0.01 | 0.01 | 0.01 | 100 | 1013.6 |
| 20260904093051 | 65 | 252 | 3.0 | 12.0 | 0.01 | 0.01 | 0.01 | 100 | 1013.7 |
| 20260904092534 | 65 | 179 | 2.0 | 14.0 | 0.01 | 0.01 | 0.01 | 100 | 1013.5 |
| 20260904092035 | 65 | 184 | 3.0 | 14.0 | 0.01 | 0.01 | 0.01 | 100 | 1013.6 |
| 20260904091556 | 65 | 220 | 4.0 | 14.0 | 0.01 | 0.01 | 0.01 | 100 | 1013.5 |
| 20260904091032 | 64 | 236 | 5.0 | 12.0 | 0.01 | 0.01 | 0.01 | 100 | 1013.6 |
| 20260904090531 | 64 | 211 | 3.0 | 10.0 | 0.01 | 0.01 | 0.01 | 100 | 1013.5 |
| 20260904090044 | 65 | 238 | 3.0 | 14.0 | 0.01 | 0.01 | 0.01 | 100 | 1013.6 |
| 20260904085535 | 65 | 191 | 3.0 | 15.0 | 0.01 | 0.01 | 0.01 | 100 | 1013.3 |
| 20260904085032 | 65 | 331 | 4.0 | 17.0 | 0.01 | 0.01 | 0.01 | 100 | 1013.3 |
| 20260904084555 | 66 | 210 | 7.0 | 17.0 | 0.01 | 0.01 | 0.01 | 100 | 1013.4 |
| 20260904084034 | 67 | 237 | 4.0 | 15.0 | 0.00 | 0.00 | 0.00 | 100 | 1013.0 |
| 20260904083533 | 68 | 247 | 5.0 | 15.0 | 0.00 | 0.00 | 0.00 | 100 | 1012.7 |
| 20260904083049 | 68 | 254 | 5.0 | 15.0 | 0.00 | 0.00 | 0.00 | 100 | 1012.5 |
| 20260904082532 | 68 | 244 | 3.0 | 13.0 | 0.00 | 0.00 | 0.00 | 100 | 1012.5 |
| 20260904082033 | 68 | 170 | 2.0 | 13.0 | 0.00 | 0.00 | 0.00 | 100 | 1012.5 |
| 20260904081554 | 68 | 295 | 5.0 | 16.0 | 0.00 | 0.00 | 0.00 | 100 | 1012.5 |
| 20260904081034 | 68 | 213 | 4.0 | 17.0 | 0.00 | 0.00 | 0.00 | 100 | 1012.4 |
| 20260904080532 | 67 | 196 | 6.0 | 17.0 | 0.00 | 0.00 | 0.00 | 100 | 1012.5 |
| 20260904080052 | 67 | 242 | 3.0 | 13.0 | 0.00 | 0.00 | 0.00 | 100 | 1012.4 |
| 20260904075533 | 67 | 219 | 4.0 | 13.0 | 0.00 | 0.00 | 0.00 | 100 | 1012.6 |
| 20260904075035 | 67 | 244 | 2.0 | 12.0 | 0.00 | 0.00 | 0.00 | 100 | 1012.4 |
| 20260904074550 | 67 | 219 | 4.0 | 13.0 | 0.00 | 0.00 | 0.00 | 100 | 1012.5 |
| 20260904074032 | 67 | 248 | 5.0 | 13.0 | 0.00 | 0.00 | 0.00 | 100 | 1012.5 |
| 20260904073533 | 67 | 273 | 3.0 | 15.0 | 0.00 | 0.00 | 0.00 | 100 | 1012.4 |
| 20260904073050 | 67 | 234 | 3.0 | 15.0 | 0.00 | 0.00 | 0.00 | 100 | 1012.4 |
| 20260904072531 | 66 | 334 | 3.0 | 12.0 | 0.00 | 0.00 | 0.00 | 100 | 1012.4 |
| 20260904072034 | 66 | 203 | 5.0 | 12.0 | 0.00 | 0.00 | 0.00 | 100 | 1012.4 |
| 20260904071554 | 66 | 225 | 4.0 | 17.0 | 0.00 | 0.00 | 0.00 | 100 | 1012.5 |
| 20260904071034 | 66 | 116 | 3.0 | 17.0 | 0.00 | 0.00 | 0.00 | 100 | 1012.6 |
| 20260904070535 | 66 | 244 | 4.0 | 17.0 | 0.00 | 0.00 | 0.00 | 100 | 1012.5 |
| 20260904070052 | 66 | 193 | 3.0 | 16.0 | 0.00 | 0.00 | 0.00 | 100 | 1012.5 |
| 20260904065532 | 66 | 207 | 5.0 | 16.0 | 0.00 | 0.00 | 0.00 | 100 | 1012.5 |
| 20260904065034 | 66 | 182 | 4.0 | 13.0 | 0.00 | 0.00 | 0.00 | 100 | 1012.7 |
| 20260904064548 | 66 | 161 | 3.0 | 13.0 | 0.00 | 0.00 | 0.00 | 100 | 1012.7 |
| 20260904064034 | 66 | 175 | 3.0 | 14.0 | 0.00 | 0.00 | 0.00 | 100 | 1012.7 |
| 20260904063532 | 66 | 199 | 4.0 | 19.0 | 0.00 | 0.00 | 0.00 | 100 | 1012.8 |
| 20260904063105 | 66 | 176 | 4.0 | 19.0 | 0.00 | 0.00 | 0.00 | 100 | 1012.7 |
| 20260904062532 | 66 | 180 | 4.0 | 13.0 | 0.00 | 0.00 | 0.00 | 100 | 1012.6 |
| 20260904062032 | 66 | 257 | 3.0 | 13.0 | 0.00 | 0.00 | 0.00 | 100 | 1012.6 |
| 20260904061553 | 66 | 213 | 3.0 | 14.0 | 0.00 | 0.00 | 0.00 | 100 | 1012.7 |
| 20260904061035 | 66 | 223 | 4.0 | 14.0 | 0.00 | 0.00 | 0.00 | 100 | 1012.7 |
| 20260904060532 | 66 | 191 | 3.0 | 12.0 | 0.00 | 0.00 | 0.00 | 100 | 1012.8 |
| 20260904060104 | 66 | 241 | 3.0 | 12.0 | 0.00 | 0.00 | 0.00 | 100 | 1012.7 |
| 20260904055533 | 66 | 253 | 4.0 | 12.0 | 0.00 | 0.00 | 0.00 | 100 | 1012.8 |
| 20260904055033 | 66 | 261 | 4.0 | 13.0 | 0.00 | 0.00 | 0.00 | 100 | 1012.5 |
| 20260904054610 | 66 | 240 | 5.0 | 13.0 | 0.00 | 0.00 | 0.00 | 100 | 1012.8 |
| 20260904054033 | 66 | 206 | 4.0 | 12.0 | 0.00 | 0.00 | 0.00 | 100 | 1012.8 |
| 20260904053533 | 66 | 236 | 4.0 | 13.0 | 0.00 | 0.00 | 0.00 | 100 | 1012.7 |
| 20260904053054 | 66 | 254 | 2.0 | 14.0 | 0.00 | 0.00 | 0.00 | 100 | 1012.7 |
| 20260904052534 | 66 | 256 | 5.0 | 19.0 | 0.00 | 0.00 | 0.00 | 100 | 1012.7 |
| 20260904052035 | 66 | 261 | 5.0 | 19.0 | 0.00 | 0.00 | 0.00 | 100 | 1012.8 |
| 20260904051555 | 66 | 248 | 2.0 | 15.0 | 0.00 | 0.00 | 0.00 | 100 | 1012.7 |
| 20260904051031 | 66 | 273 | 3.0 | 15.0 | 0.00 | 0.00 | 0.00 | 100 | 1012.7 |
| 20260904050531 | 66 | 229 | 3.0 | 12.0 | 0.00 | 0.00 | 0.00 | 100 | 1012.8 |
| 20260904050054 | 66 | 180 | 5.0 | 12.0 | 0.00 | 0.00 | 0.00 | 100 | 1012.8 |
| 20260904045533 | 66 | 190 | 4.0 | 17.0 | 0.00 | 0.00 | 0.00 | 100 | 1012.7 |
| 20260904045033 | 66 | 243 | 4.0 | 17.0 | 0.00 | 0.00 | 0.00 | 100 | 1012.8 |
| 20260904044550 | 66 | 237 | 5.0 | 17.0 | 0.00 | 0.00 | 0.00 | 100 | 1012.7 |
| 20260904044031 | 66 | 286 | 3.0 | 17.0 | 0.00 | 0.00 | 0.00 | 100 | 1012.7 |
| 20260904043531 | 66 | 245 | 4.0 | 17.0 | 0.00 | 0.00 | 0.00 | 100 | 1012.9 |
| 20260904043046 | 66 | 246 | 3.0 | 17.0 | 0.00 | 0.00 | 0.00 | 100 | 1013.0 |
| 20260904042534 | 66 | 251 | 6.0 | 14.0 | 0.00 | 0.00 | 0.00 | 100 | 1013.1 |
| 20260904042032 | 66 | 174 | 4.0 | 12.0 | 0.00 | 0.00 | 0.00 | 100 | 1012.9 |
| 20260904041559 | 66 | 172 | 3.0 | 11.0 | 0.00 | 0.00 | 0.00 | 100 | 1013.0 |
| 20260904041032 | 66 | 217 | 2.0 | 17.0 | 0.00 | 0.00 | 0.00 | 100 | 1013.0 |
| 20260904040535 | 66 | 225 | 3.0 | 17.0 | 0.00 | 0.00 | 0.00 | 100 | 1013.0 |
| 20260904040055 | 66 | 117 | 4.0 | 23.0 | 0.00 | 0.00 | 0.00 | 100 | 1013.1 |
| 20260904035534 | 66 | 205 | 4.0 | 23.0 | 0.00 | 0.00 | 0.00 | 100 | 1013.2 |
| 20260904035031 | 66 | 223 | 4.0 | 17.0 | 0.00 | 0.00 | 0.00 | 100 | 1013.4 |
| 20260904034550 | 66 | 258 | 5.0 | 17.0 | 0.00 | 0.00 | 0.00 | 100 | 1013.6 |
| 20260904034032 | 66 | 225 | 4.0 | 13.0 | 0.00 | 0.00 | 0.00 | 100 | 1013.7 |
| 20260904033536 | 66 | 219 | 4.0 | 13.0 | 0.00 | 0.00 | 0.00 | 100 | 1013.7 |
| 20260904033048 | 66 | 219 | 4.0 | 12.0 | 0.00 | 0.00 | 0.00 | 100 | 1013.8 |
| 20260904032531 | 66 | 248 | 3.0 | 12.0 | 0.00 | 0.00 | 0.00 | 100 | 1013.9 |
| 20260904032032 | 66 | 174 | 3.0 | 12.0 | 0.00 | 0.00 | 0.00 | 100 | 1014.0 |
| 20260904031603 | 66 | 254 | 4.0 | 15.0 | 0.00 | 0.00 | 0.00 | 100 | 1014.2 |
| 20260904031034 | 66 | 197 | 5.0 | 15.0 | 0.00 | 0.00 | 0.00 | 100 | 1014.1 |
| 20260904030533 | 66 | 227 | 4.0 | 14.0 | 0.00 | 0.00 | 0.00 | 100 | 1014.2 |
| 20260904030052 | 66 | 171 | 4.0 | 14.0 | 0.00 | 0.00 | 0.00 | 100 | 1014.2 |
| 20260904025532 | 66 | 240 | 4.0 | 17.0 | 0.00 | 0.00 | 0.00 | 100 | 1014.2 |
| 20260904025032 | 66 | 0 | 4.0 | 17.0 | 0.00 | 0.00 | 0.00 | 100 | 1014.1 |
| 20260904024557 | 66 | 234 | 4.0 | 17.0 | 0.00 | 0.00 | 0.00 | 100 | 1014.2 |
| 20260904024033 | 66 | 210 | 4.0 | 13.0 | 0.00 | 0.00 | 0.00 | 100 | 1014.1 |
| 20260904023533 | 66 | 298 | 2.0 | 12.0 | 0.00 | 0.00 | 0.00 | 100 | 1014.1 |
| 20260904023048 | 66 | 200 | 2.0 | 13.0 | 0.00 | 0.00 | 0.00 | 100 | 1014.1 |
| 20260904022532 | 66 | 172 | 3.0 | 14.0 | 0.00 | 0.00 | 0.00 | 100 | 1014.2 |
| 20260904022033 | 66 | 202 | 3.0 | 14.0 | 0.00 | 0.00 | 0.00 | 100 | 1014.2 |
| 20260904021547 | 66 | 227 | 4.0 | 14.0 | 0.00 | 0.00 | 0.00 | 100 | 1014.3 |
| 20260904021032 | 66 | 257 | 3.0 | 12.0 | 0.00 | 0.00 | 0.00 | 100 | 1014.5 |
| 20260904020532 | 66 | 235 | 4.0 | 20.0 | 0.00 | 0.00 | 0.00 | 100 | 1014.6 |
| 20260904020100 | 66 | 195 | 3.0 | 20.0 | 0.00 | 0.00 | 0.00 | 100 | 1014.8 |
| 20260904015532 | 66 | 212 | 3.0 | 15.0 | 0.00 | 0.00 | 0.00 | 100 | 1014.7 |
| 20260904015037 | 66 | 231 | 4.0 | 15.0 | 0.00 | 0.00 | 0.00 | 100 | 1015.0 |
| 20260904014618 | 66 | 245 | 2.0 | 9.0 | 0.00 | 0.00 | 0.00 | 100 | 1014.9 |
| 20260904014032 | 66 | 305 | 2.0 | 16.0 | 0.00 | 0.00 | 0.00 | 100 | 1015.0 |
| 20260904013533 | 66 | 255 | 4.0 | 16.0 | 0.00 | 0.00 | 0.00 | 100 | 1015.2 |
| 20260904013103 | 67 | 231 | 2.0 | 13.0 | 0.00 | 0.00 | 0.00 | 100 | 1015.3 |
| 20260904012532 | 67 | 231 | 3.0 | 13.0 | 0.00 | 0.00 | 0.00 | 100 | 1015.2 |
| 20260904012032 | 66 | 275 | 4.0 | 13.0 | 0.00 | 0.00 | 0.00 | 100 | 1015.3 |
| 20260904011555 | 66 | 247 | 2.0 | 12.0 | 0.00 | 0.00 | 0.00 | 100 | 1015.3 |
| 20260904011033 | 66 | 222 | 3.0 | 12.0 | 0.00 | 0.00 | 0.00 | 100 | 1015.4 |
| 20260904010532 | 66 | 233 | 3.0 | 11.0 | 0.00 | 0.00 | 0.00 | 100 | 1015.4 |
| 20260904010110 | 66 | 258 | 2.0 | 10.0 | 0.00 | 0.00 | 0.00 | 100 | 1015.6 |
| 20260904005533 | 66 | 242 | 2.0 | 11.0 | 0.00 | 0.00 | 0.00 | 100 | 1015.5 |
| 20260904005033 | 66 | 257 | 3.0 | 12.0 | 0.00 | 0.00 | 0.00 | 100 | 1015.6 |
| 20260904004547 | 66 | 229 | 3.0 | 12.0 | 0.00 | 0.00 | 0.00 | 100 | 1015.7 |
| 20260904004034 | 66 | 225 | 2.0 | 10.0 | 0.00 | 0.00 | 0.00 | 100 | 1015.9 |
| 20260904003531 | 66 | 236 | 2.0 | 10.0 | 0.00 | 0.00 | 0.00 | 100 | 1015.9 |
| 20260904003101 | 66 | 246 | 2.0 | 10.0 | 0.00 | 0.00 | 0.00 | 100 | 1015.9 |
| 20260904002532 | 66 | 200 | 1.0 | 11.0 | 0.00 | 0.00 | 0.00 | 100 | 1015.9 |
| 20260904002032 | 66 | 281 | 0.0 | 11.0 | 0.00 | 0.00 | 0.00 | 100 | 1016.2 |
| 20260904001550 | 66 | 260 | 2.0 | 11.0 | 0.00 | 0.00 | 0.00 | 100 | 1016.2 |
| 20260904001034 | 66 | 292 | 0.0 | 10.0 | 0.00 | 0.00 | 0.00 | 100 | 1016.3 |
| 20260904000531 | 66 | 163 | 2.0 | 7.0 | 0.00 | 0.00 | 0.00 | 100 | 1016.4 |
| 20260903235535 | 65 | 0 | 1.0 | 8.0 | 0.00 | 0.00 | 0.00 | 100 | 1016.6 |
| 20260903235033 | 65 | 227 | 2.0 | 9.0 | 0.00 | 0.00 | 0.00 | 100 | 1016.5 |
| 20260903234548 | 65 | 0 | 0.0 | 9.0 | 0.00 | 0.00 | 0.00 | 100 | 1016.5 |
| 20260903234032 | 65 | 189 | 2.0 | 10.0 | 0.00 | 0.00 | 0.00 | 100 | 1016.4 |
| 20260903233531 | 65 | 0 | 2.0 | 11.0 | 0.00 | 0.00 | 0.00 | 100 | 1016.5 |
| 20260903233044 | 65 | 0 | 3.0 | 11.0 | 0.00 | 0.00 | 0.00 | 100 | 1016.4 |
| 20260903232532 | 65 | 198 | 1.0 | 7.0 | 0.00 | 0.00 | 0.00 | 100 | 1016.5 |
| 20260903232034 | 65 | 240 | 2.0 | 7.0 | 0.00 | 0.00 | 0.00 | 100 | 1016.6 |
| 20260903231553 | 65 | 266 | 1.0 | 8.0 | 0.00 | 0.00 | 0.00 | 100 | 1016.5 |
| 20260903231031 | 65 | 221 | 0.0 | 8.0 | 0.00 | 0.00 | 0.00 | 100 | 1016.5 |
| 20260903230531 | 65 | 252 | 2.0 | 8.0 | 0.00 | 0.00 | 0.00 | 100 | 1016.6 |
| 20260903230057 | 65 | 190 | 2.0 | 9.0 | 0.00 | 0.00 | 0.00 | 100 | 1016.6 |
| 20260903225537 | 65 | 225 | 2.0 | 9.0 | 0.00 | 0.00 | 0.00 | 100 | 1016.8 |
| 20260903225030 | 65 | 249 | 2.0 | 9.0 | 0.00 | 0.00 | 0.00 | 100 | 1016.8 |
| 20260903224544 | 66 | 279 | 1.0 | 8.0 | 0.00 | 0.00 | 0.00 | 100 | 1016.9 |
| 20260903224032 | 66 | 243 | 0.0 | 9.0 | 0.00 | 0.00 | 0.00 | 100 | 1017.0 |
| 20260903223532 | 66 | 153 | 2.0 | 9.0 | 0.00 | 0.00 | 0.00 | 100 | 1017.1 |
| 20260903223104 | 66 | 259 | 2.0 | 9.0 | 0.00 | 0.00 | 0.00 | 100 | 1017.0 |
| 20260903222531 | 66 | 215 | 2.0 | 9.0 | 0.00 | 0.00 | 0.00 | 100 | 1017.1 |
| 20260903222034 | 66 | 263 | 2.0 | 9.0 | 0.00 | 0.00 | 0.00 | 100 | 1017.1 |
| 20260903221552 | 66 | 239 | 3.0 | 10.0 | 0.00 | 0.00 | 0.00 | 100 | 1017.1 |
| 20260903221032 | 66 | 0 | 3.0 | 10.0 | 0.00 | 0.00 | 0.00 | 100 | 1017.2 |
| 20260903220534 | 66 | 210 | 3.0 | 13.0 | 0.00 | 0.00 | 0.00 | 100 | 1017.3 |
| 20260903220046 | 66 | 232 | 3.0 | 13.0 | 0.00 | 0.00 | 0.00 | 100 | 1017.2 |
| 20260903215532 | 67 | 0 | 3.0 | 10.0 | 0.00 | 0.00 | 0.00 | 100 | 1017.2 |